#timestamp,LO_Frequency,Hit,StdDev 
1572051615.3,286046997.7,N
1572051635.1,286046995.1,N
1572051636.0,286046995.1,N
1572051655.8,286046995.8,N
1572051675.7,286046997.7,N
1572051695.5,286046995.3,N
1572051715.3,286046997.9,N
1572051735.2,286046996.9,N
1572051755.9,286046996.6,N
1572051775.7,286046996.7,N
1572051795.6,286046998.8,N
1572051815.4,286046996.9,N
1572051835.2,286046997.1,N
1572051855.1,286046997.4,N
1572051856.0,286046997.4,N
1572051875.8,286046995.8,Y
1572051895.6,286046999.0,P
1572051915.5,286047001.1,N
1572051935.3,286047000.7,N
1572051955.1,286046998.9,N
1572051975.9,286046999.4,N
1572051995.7,286046999.0,N
1572052015.5,286046999.3,N
1572052035.4,286046998.8,N
1572052055.2,286046998.4,N
1572052075.0,286047000.5,N
1572052075.9,286047000.5,N
1572052095.8,286046999.7,N
1572052115.6,286047001.2,N
1572052135.4,286046998.5,N
1572052155.3,286046998.9,N
1572052175.1,286046996.9,Y
1572052195.8,286046999.3,P
1572052215.7,286046997.3,P
1572052235.5,286046998.9,N
1572052255.3,286047001.0,N
1572052275.2,286046998.3,N
1572052295.0,286046998.8,N
1572052295.9,286046998.8,N
1572052315.7,286046999.1,N
1572052335.6,286046999.6,N
1572052355.4,286046996.9,Y
1572052375.2,286046999.1,P
1572052395.1,286046998.3,P
1572052396.0,286046998.3,P
1572052415.8,286046998.9,N
1572052435.6,286047000.8,N
1572052455.5,286046998.7,N
1572052475.3,286047000.5,N
1572052495.1,286047001.9,N
1572052515.9,286047002.0,N
1572052535.7,286047000.2,N
1572052555.5,286046999.9,N
1572052575.4,286047000.1,N
1572052595.2,286047000.0,N
1572052615.0,286047000.7,N
1572052615.9,286047000.7,N
1572052635.8,286047000.1,N
1572052655.6,286046998.2,N
1572052675.4,286047001.0,N
1572052695.3,286047001.2,N
1572052715.1,286047000.6,N
1572052735.9,286046998.8,N
1572052755.7,286047000.7,N
1572052775.5,286047001.1,N
1572052795.3,286046999.4,N
1572052815.2,286046998.3,N
1572052835.0,286046998.6,N
1572052835.9,286046998.6,N
1572052855.8,286047000.9,N
1572052875.6,286046998.2,N
1572052895.4,286046999.5,N
1572052915.3,286046997.1,N
1572052935.1,286046996.5,N
1572052936.0,286046996.5,N
1572052955.8,286046996.6,N
1572052975.7,286047001.1,N
1572052995.5,286046998.5,N
1572053015.3,286046998.2,N
1572053035.2,286046999.0,N
1572053055.9,286046998.3,N
1572053075.7,286046996.9,N
1572053095.6,286046997.0,N
1572053115.4,286046997.6,N
1572053135.2,286046997.8,N
1572053155.1,286046997.0,N
1572053156.0,286046997.0,N
1572053175.8,286046998.7,N
1572053195.6,286046999.6,N
1572053215.5,286046998.1,N
1572053235.3,286047000.9,N
1572053255.1,286046999.9,N
1572053275.9,286047000.7,N
1572053295.7,286047000.7,N
1572053315.5,286046999.1,N
1572053335.4,286046998.8,N
1572053355.2,286046998.1,N
1572053375.0,286046999.7,N
1572053375.9,286046999.7,N
1572053395.8,286046999.7,N
1572053415.6,286046999.8,N
1572053435.4,286047002.3,N
1572053455.3,286047002.0,N
1572053475.1,286047000.3,N
1572053495.8,286046999.7,N
1572053515.7,286046998.2,N
1572053535.5,286046999.9,N
1572053555.3,286047004.0,N
1572053575.2,286047001.8,N
1572053595.0,286047001.7,N
1572053595.9,286047001.7,N
1572053615.7,286047002.4,N
1572053635.6,286047002.3,N
1572053655.4,286047000.6,N
1572053675.2,286047002.6,N
1572053695.1,286047000.4,N
1572053696.0,286047000.4,N
1572053715.8,286046998.6,N
1572053735.7,286047000.7,N
1572053755.5,286047000.8,N
1572053775.3,286047001.2,N
1572053795.2,286046998.3,N
1572053815.9,286046998.4,N
1572053835.7,286047001.1,N
1572053855.6,286046999.8,N
1572053875.4,286047002.0,N
1572053895.2,286047001.9,N
1572053915.1,286047002.3,N
1572053916.0,286047002.3,N
1572053935.8,286047002.8,N
1572053955.6,286047002.7,N
1572053975.5,286047000.6,N
1572053995.3,286047000.9,N
1572054015.1,286047000.2,N
1572054035.9,286047000.1,N
1572054055.7,286047000.1,N
1572054075.5,286047000.5,N
1572054095.4,286047001.2,N
1572054115.2,286047001.2,N
1572054135.0,286047000.5,N
1572054135.9,286047000.5,N
1572054155.8,286047000.4,N
1572054175.6,286047000.7,N
1572054195.4,286046999.3,N
1572054215.3,286046998.6,N
1572054235.1,286047000.2,N
1572054255.8,286047002.4,N
1572054275.7,286047001.9,N
1572054295.5,286047002.9,N
1572054315.3,286047000.0,N
1572054335.2,286047002.8,N
1572054355.0,286047001.6,N
1572054355.9,286047001.6,N
1572054375.8,286047002.5,N
1572054395.6,286047002.1,N
1572054415.4,286047002.8,N
1572054435.3,286047000.4,N
1572054455.1,286046998.4,N
1572054456.0,286046998.4,N
1572054475.8,286047000.8,N
1572054495.7,286046998.4,N
1572054515.5,286046999.7,N
1572054535.3,286047000.9,N
1572054555.2,286047000.3,N
1572054575.9,286046998.1,N
1572054595.7,286047000.8,N
1572054615.6,286047000.8,N
1572054635.4,286047000.9,N
1572054655.2,286047000.5,N
1572054675.1,286047002.6,N
1572054676.0,286047002.6,N
1572054695.8,286047002.8,N
1572054715.6,286047000.4,N
1572054735.5,286046998.1,N
1572054755.3,286047000.8,N
1572054775.1,286046999.9,N
1572054795.9,286047000.6,N
1572054815.7,286047000.2,N
1572054835.5,286046999.7,N
1572054855.4,286047001.0,N
1572054875.2,286047002.3,N
1572054895.0,286046999.6,N
1572054895.9,286046999.6,N
1572054915.8,286046999.6,N
1572054935.6,286046997.3,N
1572054955.4,286046995.0,Y
1572054975.3,286046996.2,P
1572054995.1,286046995.6,N
1572055015.8,286046995.3,N
1572055035.7,286046996.9,N
1572055055.5,286046997.4,N
1572055075.3,286046998.4,N
1572055095.2,286046997.4,N
1572055115.0,286046995.2,Y
1572055115.9,286046995.2,P
1572055135.7,286046998.6,N
1572055155.6,286047002.4,N
1572055175.4,286047000.2,N
1572055195.2,286047001.1,N
